Regional Weather Roundup
Issued by NWS

Home | Current Version | Previous Version | Graphics & Text | Print | Product List | Glossary On
Versions: 1 2 3 4 5 6 7 8 9 10 11 12 13 14 15 16 17 18 19 20 21 22 23 24 25 26 27 28 29 30 31 32 33 34 35 36 37 38 39 40 41 42 43 44 45 46 47 48 49 50
000
ASUS43 KLSX 282007
RWRMO

WEATHER SUMMARY FOR MISSOURI
NATIONAL WEATHER SERVICE SPRINGFIELD MO
300 PM CDT THU JUL 28 2016

NOTE: "FAIR" INDICATES FEW OR NO CLOUDS BELOW 12,000 FEET WITH NO
       SIGNIFICANT WEATHER AND/OR OBSTRUCTIONS TO VISIBILITY.
       CURRENT SKY AND/OR WEATHER CONDITIONS ARE NOT AVAILABLE FOR
       CHILLICOTHE AND FARMINGTON.

MOZ001>031-035>038-043-044-053-054-282100-
...NORTHERN AND WESTERN MISSOURI...

CITY           SKY/WX    TMP DP  RH WIND       PRES   REMARKS
KANSAS CTY INT MOSUNNY   88  70  55 N13       29.95F HX  93
KANSAS C DTWN  PTSUNNY   89  67  47 N8        29.93F HX  92
LEE`S SUMMIT   MOSUNNY   90  69  50 N9        29.95F HX  94
ST JOSEPH      SUNNY     87  69  54 N9        29.96S HX  91
CHILLICOTHE      N/A     88  68  51 N8        29.94F HX  91
KIRKSVILLE     MOSUNNY   87  66  49 N13       29.93F

$$
MOZ066>068-077>081-088>096-101>105-282100-
...SOUTHWEST MISSOURI...

CITY           SKY/WX    TMP DP  RH WIND       PRES   REMARKS
SPRINGFIELD    PTSUNNY   89  69  51 VRB5      29.94F HX  93
JOPLIN         PTSUNNY   88  72  58 W8        29.95F HX  94
BRANSON        PTSUNNY   90  72  55 CALM      29.96F HX  96

$$
MOZ032>034-039>042-045>050-055>058-069>072-282100-
...CENTRAL MISSOURI...

CITY           SKY/WX    TMP DP  RH WIND       PRES   REMARKS
COLUMBIA       MOSUNNY   85  73  67 N8        29.91F HX  91
JEFFERSON CITY CLOUDY    87  73  62 VRB3      29.89F HX  94
ROLLA          CLOUDY    87  71  58 N8        29.91F HX  93
SEDALIA        MOSUNNY   88  73  61 N8        29.94S HX  95
OSAGE BEACH    MOSUNNY   87  74  64 VRB3      29.92F HX  95

$$
MOZ051-052-059>065-282100-
...EAST CENTRAL MISSOURI...

CITY           SKY/WX    TMP DP  RH WIND       PRES   REMARKS
ST LOUIS INTL  MOSUNNY   90  69  50 NW12      29.88F HX  94
SPIRIT OF STL  PTSUNNY   89  71  55 W9        29.87F HX  95
ST CHARLES     SUNNY     88  72  58 NW10      29.87F HX  94

$$
MOZ072>076-082>087-097>100-106>115-282100-
...SOUTH CENTRAL AND SOUTHEAST MISSOURI...

CITY           SKY/WX    TMP DP  RH WIND       PRES   REMARKS
CAPE GIRARDEAU CLOUDY    83  76  79 SW7       29.88S HX  91
FARMINGTON     CLOUDY    86  74  67 SW6       29.91F HX  94
POPLAR BLUFF   CLOUDY    88  77  69 S10       29.88F HX 100
WEST PLAINS    MOSUNNY   90  68  48 SW3       29.95F HX  94

$$


USA.gov is the U.S. government's official web portal to all federal, state and local government web resources and services.